Stündliche Wetter La Belleza

Heute, 11 Mai, Dienstag

Zeit Temperatur Niederschläge Wind Luftdruck Luftfeuchtigkeit
00:00 +13°C° 0.4 mm 2 m/S 603 mmHg 89%
01:00 +12°C° 0.4 mm 2 m/S 603 mmHg 88%
02:00 +13°C° 0.1 mm 1 m/S 603 mmHg 86%
03:00 +13°C° 0.1 mm 1 m/S 603 mmHg 84%
04:00 +14°C° 0.1 mm 1 m/S 603 mmHg 82%
05:00 +14°C° 0.2 mm 1 m/S 603 mmHg 81%
06:00 +15°C° 0.2 mm 1 m/S 604 mmHg 81%
07:00 +15°C° 0.2 mm 1 m/S 605 mmHg 80%
08:00 +18°C° 0.1 mm 1 m/S 605 mmHg 75%
09:00 +20°C° 0.1 mm 1 m/S 606 mmHg 70%
10:00 +21°C° 0.1 mm 1 m/S 607 mmHg 65%
11:00 +21°C° 0.6 mm 1 m/S 606 mmHg 69%
12:00 +21°C° 0.6 mm 1 m/S 605 mmHg 74%
13:00 +21°C° 0.6 mm 1 m/S 605 mmHg 78%
14:00 +21°C° 0.8 mm 1 m/S 604 mmHg 79%
15:00 +19°C° 0.8 mm 0 m/S 604 mmHg 80%
16:00 +19°C° 0.8 mm 0 m/S 604 mmHg 81%
17:00 +19°C° 1.1 mm 1 m/S 604 mmHg 86%
18:00 +18°C° 1.1 mm 1 m/S 603 mmHg 91%
19:00 +15°C° 1.1 mm 1 m/S 603 mmHg 95%
20:00 +15°C° 1.3 mm 1 m/S 604 mmHg 95%
21:00 +14°C° 1.3 mm 1 m/S 604 mmHg 95%
22:00 +14°C° 1.3 mm 1 m/S 604 mmHg 95%
23:00 +14°C° 0.3 mm 1 m/S 604 mmHg 95%

Morgen, 12 Mai, Mittwoch

Zeit Temperatur Niederschläge Wind Luftdruck Luftfeuchtigkeit
00:00 +13°C° 0.3 mm 1 m/S 603 mmHg 95%
01:00 +13°C° 0.3 mm 1 m/S 603 mmHg 95%
02:00 +13°C° 0 mm 1 m/S 603 mmHg 94%
03:00 +13°C° 0 mm 1 m/S 603 mmHg 94%
04:00 +12°C° 0 mm 2 m/S 602 mmHg 93%
05:00 +13°C° 0 mm 1 m/S 603 mmHg 91%
06:00 +14°C° 0 mm 1 m/S 604 mmHg 88%
07:00 +15°C° 0 mm 1 m/S 604 mmHg 85%
08:00 +18°C° 0 mm 1 m/S 605 mmHg 75%
09:00 +21°C° 0 mm 1 m/S 606 mmHg 66%
10:00 +23°C° 0 mm 1 m/S 607 mmHg 56%
11:00 +23°C° 0.5 mm 1 m/S 606 mmHg 61%
12:00 +23°C° 0.5 mm 1 m/S 606 mmHg 65%
13:00 +23°C° 0.5 mm 1 m/S 605 mmHg 70%
14:00 +22°C° 1 mm 1 m/S 605 mmHg 74%
15:00 +22°C° 1 mm 1 m/S 604 mmHg 77%
16:00 +19°C° 1 mm 0 m/S 604 mmHg 81%
17:00 +20°C° 1.4 mm 1 m/S 604 mmHg 85%
18:00 +18°C° 1.4 mm 1 m/S 604 mmHg 90%
19:00 +15°C° 1.4 mm 1 m/S 604 mmHg 94%
20:00 +15°C° 1.8 mm 1 m/S 604 mmHg 95%
21:00 +14°C° 1.8 mm 2 m/S 604 mmHg 96%
22:00 +14°C° 1.8 mm 2 m/S 604 mmHg 96%
23:00 +14°C° 0.7 mm 2 m/S 604 mmHg 96%

übermorgen, 13 Mai, Donnerstag

Zeit Temperatur Niederschläge Wind Luftdruck Luftfeuchtigkeit
00:00 +13°C° 0.7 mm 2 m/S 604 mmHg 96%
01:00 +13°C° 0.7 mm 2 m/S 603 mmHg 96%
02:00 +13°C° 0.2 mm 2 m/S 603 mmHg 95%
03:00 +13°C° 0.2 mm 2 m/S 603 mmHg 95%
04:00 +12°C° 0.2 mm 2 m/S 603 mmHg 95%
05:00 +13°C° 0.1 mm 1 m/S 603 mmHg 93%
06:00 +14°C° 0.1 mm 1 m/S 604 mmHg 91%
07:00 +15°C° 0.1 mm 1 m/S 604 mmHg 89%
08:00 +18°C° 0.1 mm 1 m/S 605 mmHg 80%
09:00 +21°C° 0.1 mm 1 m/S 606 mmHg 71%
10:00 +23°C° 0.1 mm 1 m/S 607 mmHg 63%
11:00 +23°C° 0.6 mm 1 m/S 606 mmHg 65%
12:00 +23°C° 0.6 mm 1 m/S 606 mmHg 67%
13:00 +23°C° 0.6 mm 1 m/S 605 mmHg 70%
14:00 +22°C° 1.5 mm 1 m/S 605 mmHg 74%
15:00 +20°C° 1.5 mm 0 m/S 604 mmHg 79%
16:00 +19°C° 1.5 mm 0 m/S 603 mmHg 84%
17:00 +18°C° 1.8 mm 0 m/S 603 mmHg 87%
18:00 +18°C° 1.8 mm 1 m/S 603 mmHg 91%
19:00 +16°C° 1.8 mm 1 m/S 603 mmHg 94%
20:00 +15°C° 1.9 mm 1 m/S 603 mmHg 95%
21:00 +15°C° 1.9 mm 1 m/S 604 mmHg 96%
22:00 +14°C° 1.9 mm 1 m/S 604 mmHg 97%
23:00 +14°C° 0.8 mm 1 m/S 604 mmHg 96%

14 Mai, Freitag

Zeit Temperatur Niederschläge Wind Luftdruck Luftfeuchtigkeit
00:00 +14°C° 0.8 mm 1 m/S 603 mmHg 96%
01:00 +13°C° 0.8 mm 2 m/S 603 mmHg 96%
02:00 +13°C° 0.3 mm 2 m/S 603 mmHg 95%
03:00 +13°C° 0.3 mm 2 m/S 603 mmHg 95%
04:00 +13°C° 0.3 mm 2 m/S 603 mmHg 94%
05:00 +14°C° 0.1 mm 1 m/S 603 mmHg 92%
06:00 +14°C° 0.1 mm 1 m/S 604 mmHg 90%
07:00 +15°C° 0.1 mm 1 m/S 605 mmHg 88%
08:00 +18°C° 0 mm 1 m/S 605 mmHg 80%
09:00 +21°C° 0 mm 1 m/S 606 mmHg 71%
10:00 +23°C° 0 mm 1 m/S 607 mmHg 62%
11:00 +22°C° 0.8 mm 1 m/S 606 mmHg 67%
12:00 +22°C° 0.8 mm 1 m/S 606 mmHg 72%
13:00 +22°C° 0.8 mm 1 m/S 605 mmHg 77%
14:00 +22°C° 1.2 mm 1 m/S 604 mmHg 79%
15:00 +19°C° 1.2 mm 0 m/S 604 mmHg 81%
16:00 +19°C° 1.2 mm 0 m/S 604 mmHg 83%
17:00 +19°C° 1.8 mm 1 m/S 603 mmHg 87%
18:00 +18°C° 1.8 mm 1 m/S 603 mmHg 91%
19:00 +15°C° 1.8 mm 1 m/S 603 mmHg 94%
20:00 +15°C° 1.3 mm 1 m/S 603 mmHg 95%
21:00 +15°C° 1.3 mm 1 m/S 604 mmHg 96%
22:00 +14°C° 1.3 mm 2 m/S 604 mmHg 97%
23:00 +14°C° 0.5 mm 1 m/S 604 mmHg 96%

15 Mai, Samstag

Zeit Temperatur Niederschläge Wind Luftdruck Luftfeuchtigkeit
00:00 +14°C° 0.5 mm 1 m/S 604 mmHg 96%
01:00 +14°C° 0.5 mm 1 m/S 604 mmHg 95%
02:00 +14°C° 0.2 mm 1 m/S 603 mmHg 95%
03:00 +14°C° 0.2 mm 1 m/S 603 mmHg 94%
04:00 +13°C° 0.2 mm 1 m/S 603 mmHg 94%
05:00 +14°C° 0.2 mm 1 m/S 604 mmHg 93%
06:00 +15°C° 0.2 mm 1 m/S 604 mmHg 91%
07:00 +14°C° 0.2 mm 0 m/S 605 mmHg 90%
08:00 +18°C° 0.2 mm 1 m/S 605 mmHg 84%
09:00 +20°C° 0.2 mm 1 m/S 606 mmHg 78%
10:00 +21°C° 0.2 mm 1 m/S 607 mmHg 72%
11:00 +21°C° 0.9 mm 1 m/S 606 mmHg 74%
12:00 +21°C° 0.9 mm 1 m/S 606 mmHg 76%
13:00 +22°C° 0.9 mm 1 m/S 605 mmHg 79%
14:00 +21°C° 1 mm 1 m/S 605 mmHg 81%
15:00 +19°C° 1 mm 0 m/S 604 mmHg 83%
16:00 +19°C° 1 mm 0 m/S 604 mmHg 85%
17:00 +17°C° 1.1 mm 0 m/S 604 mmHg 89%
18:00 +18°C° 1.1 mm 1 m/S 603 mmHg 92%
19:00 +16°C° 1.1 mm 1 m/S 603 mmHg 96%
20:00 +16°C° 2 mm 1 m/S 604 mmHg 96%
21:00 +15°C° 2 mm 1 m/S 604 mmHg 97%
22:00 +15°C° 2 mm 1 m/S 604 mmHg 97%
23:00 +15°C° 2.5 mm 1 m/S 604 mmHg 97%

16 Mai, Sonntag

Zeit Temperatur Niederschläge Wind Luftdruck Luftfeuchtigkeit
00:00 +15°C° 2.5 mm 1 m/S 604 mmHg 97%
01:00 +14°C° 2.5 mm 1 m/S 604 mmHg 98%
02:00 +14°C° 0.6 mm 1 m/S 604 mmHg 98%
03:00 +14°C° 0.6 mm 1 m/S 604 mmHg 97%
04:00 +14°C° 0.6 mm 1 m/S 604 mmHg 97%
05:00 +14°C° 0.1 mm 1 m/S 604 mmHg 97%
06:00 +13°C° 0.1 mm 0 m/S 604 mmHg 96%
07:00 +13°C° 0.1 mm 0 m/S 605 mmHg 96%
08:00 +15°C° 0 mm 0 m/S 605 mmHg 88%
09:00 +19°C° 0 mm 1 m/S 606 mmHg 80%
10:00 +20°C° 0 mm 1 m/S 606 mmHg 73%
11:00 +21°C° 0.4 mm 1 m/S 606 mmHg 74%
12:00 +21°C° 0.4 mm 1 m/S 606 mmHg 75%
13:00 +21°C° 0.4 mm 1 m/S 605 mmHg 76%
14:00 +21°C° 0.6 mm 1 m/S 605 mmHg 78%
15:00 +19°C° 0.6 mm 0 m/S 604 mmHg 79%
16:00 +19°C° 0.6 mm 0 m/S 604 mmHg 80%
17:00 +17°C° 0.8 mm 0 m/S 604 mmHg 85%
18:00 +16°C° 0.8 mm 0 m/S 604 mmHg 89%
19:00 +16°C° 0.8 mm 1 m/S 604 mmHg 94%
20:00 +16°C° 2 mm 1 m/S 604 mmHg 95%
21:00 +15°C° 2 mm 1 m/S 605 mmHg 96%
22:00 +15°C° 2 mm 1 m/S 605 mmHg 97%
23:00 +15°C° 1.7 mm 1 m/S 605 mmHg 97%
Mehr zeigen

Wir brauchen deine Erlaubnis

Meteoprog und unser Service Anbieter werden persönliche Daten aufbewahren, so wie Cookies, Geräte Bezeichnung oder ähnliche Technologien von deinem Gerät und Prozess, so wie Persönliche Daten Inhalte und Werbungen, genauso wie social Media und den Verkehr zu analysieren.

  • Aufbewahrung und/oder Zugang zu deiner Geräte Informationen.

    Cookies, Geräte Bezeichnung oder andere Informationen, können aufbewahrt oder Zugang zu deinem Gerät erhalten, für den Grund, der oben angegeben wird.

  • Personalisierte Werbung und Inhalte, Messungen, Einblick in das Publikum und Produkt Entwicklung.

    Werbungen und Inhalte können personalisiert werden, basierend auf ein Profil. Mehr Daten können besser personalisierte Werbungen und Inhalte hinzufügen. Werbung und Inhalte können gezeigt und gemessen werden. Einblicke über das Publikum, welche die Werbung gesehen haben und den Inhalt, können abgeleitet werden. So wie Daten können genutzt werden, um es zu verbessern oder die Benutzer Erfahrung zu verbessern das System und die Software.

Wenn du “Ich stimme zu” klickst, erlaubst du uns, die Cookies zu benutzen die Geräte Bezeichnung, den Web oder ähnliche Technologien zu benutzen. Deine Settings, können in deinem Gerät bei deinem Browser geändert werden.

Für den bestimmten Zweck, berechtigten Interessen beruhen darauf, mehr als auf den Inhalt. Du kannst mehr darüber in unseren Privaten und Cookie Politik lesen.